CW9244 Weather Reports


time (UTC)temp
F
wind
direction
speed
knots
gust
knots
rain 1hr
in
rain 24hr
in
rain mn
in
humidity
%
barometer
mb
20260901092715 70 112 0.0 0.0 0.00 0.94 0.94 94 1032.5
20260901091713 70 202 0.0 0.0 0.00 0.94 0.94 93 1032.3
20260901090714 70 90 0.0 0.0 0.01 0.94 0.94 93 1032.2
20260901085813 70 110 0.0 0.9 0.02 0.94 0.94 93 1032.3
20260901084817 70 180 0.0 0.0 0.03 0.94 0.94 93 1032.5
20260901083818 70 180 0.0 0.9 0.03 0.94 0.94 93 1032.7
20260901082913 70 337 0.0 0.0 0.05 0.94 0.94 93 1032.8
20260901081916 70 337 0.0 0.0 0.09 0.94 0.94 93 1032.7
20260901080914 70 67 0.0 0.0 0.11 0.93 0.93 93 1032.8
20260901075914 70 67 0.0 0.0 0.16 0.92 0.92 93 1032.9
20260901074915 70 180 0.0 0.0 0.22 0.91 0.91 93 1032.9
20260901073916 70 292 0.0 0.0 0.27 0.91 0.91 93 1033.0
20260901073014 70 337 0.0 0.0 0.30 0.90 0.89 93 1033.3
20260901072015 70 337 0.0 0.9 0.35 0.85 0.85 92 1033.0
20260901070113 70 337 0.0 0.0 0.38 0.76 0.76 91 1033.1
20260901065213 69 337 0.0 0.0 0.44 0.73 0.72 92 1033.1
20260901064216 69 337 0.0 0.0 0.46 0.66 0.66 91 1033.1
20260901063314 69 337 0.0 0.0 0.47 0.62 0.62 91 1033.0
20260901062413 69 292 0.0 0.0 0.45 0.54 0.53 90 1033.1
20260901061415 69 292 0.0 0.0 0.42 0.46 0.46 90 1033.3
20260901060416 69 292 0.0 0.0 0.40 0.41 0.40 89 1033.5
20260901055415 70 292 0.0 0.0 0.32 0.32 0.30 88 1033.6
20260901054514 70 292 0.0 0.0 0.22 0.22 0.21 89 1033.8
20260901053515 70 292 0.0 0.0 0.16 0.16 0.15 88 1033.9
20260901051614 70 292 0.0 0.0 0.05 0.05 0.04 87 1033.9
20260901050616 71 292 0.0 0.0 0.02 0.02 0.01 87 1033.9
20260901045714 71 292 0.0 0.0 0.00 0.00 0.00 87 1033.8
20260901044715 71 292 0.0 0.0 0.00 0.00 0.00 87 1033.7
20260901043713 71 292 0.0 0.0 0.00 0.00 0.00 87 1033.8
20260901042716 71 292 0.0 0.0 0.00 0.00 0.00 87 1033.8
20260901040714 71 292 0.0 0.0 0.00 0.00 0.00 86 1033.8
20260901035727 71 292 0.0 0.0 0.00 0.00 0.00 86 1034.0
20260901034729 71 292 0.0 0.0 0.00 0.00 0.00 86 1034.0
20260901033826 71 292 0.0 0.0 0.00 0.00 0.00 85 1034.2
20260901032826 71 292 0.0 0.0 0.00 0.00 0.00 85 1034.2
20260901031826 71 292 0.0 0.0 0.00 0.00 0.00 86 1034.2
20260901030826 71 292 0.0 0.0 0.00 0.00 0.00 85 1034.4
20260901025829 71 292 0.0 0.0 0.00 0.00 0.00 85 1034.2
20260901024926 71 292 0.0 0.0 0.00 0.00 0.00 84 1034.5
20260901023926 71 292 0.0 0.0 0.00 0.00 0.00 84 1034.5
20260901022928 71 292 0.0 0.0 0.00 0.00 0.00 84 1034.4
20260901021927 71 296 0.0 0.0 0.00 0.00 0.00 84 1034.5
20260901020926 71 112 0.0 0.0 0.00 0.00 0.00 83 1034.5
20260901020025 71 112 0.0 0.0 0.00 0.01 0.00 83 1034.5
20260901015027 71 112 0.0 0.0 0.00 0.02 0.00 83 1034.6
20260901013125 71 112 0.0 0.0 0.00 0.02 0.00 82 1034.7
20260901012127 71 112 0.0 0.0 0.00 0.02 0.00 82 1034.7
20260901011127 71 118 0.0 0.9 0.00 0.02 0.00 82 1034.5
20260901010225 71 247 0.0 0.0 0.00 0.02 0.00 81 1034.5
20260901005228 71 247 0.0 0.0 0.00 0.02 0.00 81 1034.7
20260901004228 71 247 0.0 0.0 0.00 0.02 0.00 81 1034.7
20260901003226 71 247 0.0 0.0 0.00 0.02 0.00 81 1034.5
20260901002225 71 247 0.0 0.0 0.00 0.02 0.00 81 1034.5
20260831234225 71 202 0.0 0.0 0.00 0.02 0.00 79 1034.6
20260831233325 72 202 0.0 0.0 0.00 0.02 0.00 79 1034.7
20260831232328 72 202 0.0 0.0 0.00 0.02 0.00 79 1034.9
20260831231329 72 202 0.0 0.0 0.00 0.02 0.00 78 1035.0
20260831230426 72 202 0.0 0.0 0.00 0.02 0.00 78 1035.0
20260831225427 73 202 0.0 0.9 0.00 0.02 0.00 77 1034.7
20260831224427 73 202 0.0 0.0 0.00 0.02 0.00 76 1034.9
20260831223525 73 202 0.0 0.0 0.00 0.02 0.00 76 1034.7
20260831222525 73 247 0.0 0.0 0.00 0.02 0.00 75 1034.8
20260831221527 73 337 0.0 0.9 0.00 0.02 0.00 75 1034.9
20260831220526 73 202 0.0 0.9 0.00 0.02 0.00 76 1034.9
20260831215527 73 180 0.0 0.9 0.00 0.02 0.00 76 1034.8
20260831214625 73 67 0.0 0.9 0.00 0.02 0.00 76 1034.7
20260831211725 73 123 0.0 0.9 0.00 0.02 0.00 74 1034.9
20260831205726 74 202 0.0 0.9 0.00 0.02 0.00 72 1035.0
20260831203726 75 247 0.0 0.0 0.00 0.02 0.00 72 1035.1
20260831202725 75 173 0.0 2.6 0.00 0.02 0.00 72 1035.0
20260831201726 76 315 0.0 0.0 0.00 0.02 0.00 71 1035.0
20260831200825 76 270 0.0 0.0 0.00 0.02 0.00 71 1035.1
20260831195826 77 337 0.0 0.0 0.00 0.02 0.00 70 1035.1
20260831194827 77 337 0.0 0.0 0.00 0.02 0.00 69 1035.2
20260831193829 77 337 0.0 0.0 0.00 0.02 0.00 69 1035.1
20260831191826 77 67 0.0 0.0 0.00 0.02 0.00 70 1035.1
20260831190826 78 67 0.0 0.0 0.00 0.02 0.00 70 1035.2
20260831185826 78 67 0.0 0.0 0.00 0.02 0.00 68 1035.3
20260831184826 78 67 0.0 0.9 0.00 0.02 0.00 68 1035.5
20260831182927 80 67 0.0 0.0 0.00 0.02 0.00 63 1035.8
20260831182025 81 67 0.0 0.9 0.00 0.02 0.00 63 1035.9
20260831181027 81 67 0.9 2.6 0.00 0.02 0.00 61 1035.8
20260831175126 81 67 0.0 0.0 0.00 0.02 0.00 61 1035.8
20260831173226 84 67 0.0 1.7 0.00 0.02 0.00 57 1035.6
20260831172226 83 67 0.0 0.0 0.00 0.02 0.00 60 1035.7
20260831170227 79 67 0.0 0.0 0.00 0.02 0.00 62 1036.0
20260831163228 78 67 0.0 0.0 0.00 0.02 0.00 63 1036.1
20260831162226 78 67 0.9 1.7 0.00 0.02 0.00 62 1036.2
20260831161324 78 67 0.0 0.0 0.00 0.02 0.00 61 1036.4
20260831155326 78 67 0.0 0.0 0.00 0.02 0.00 61 1036.1
20260831154425 78 67 0.0 0.0 0.00 0.02 0.00 62 1036.1
20260831153426 78 67 0.0 1.7 0.00 0.02 0.00 62 1036.1
20260831152426 78 67 0.0 0.9 0.00 0.02 0.00 60 1036.2
20260831151427 78 67 0.0 0.0 0.00 0.02 0.00 60 1036.3
20260831150526 77 67 0.0 0.0 0.00 0.02 0.00 60 1036.3
20260831145525 78 67 0.0 0.9 0.00 0.02 0.00 61 1036.3
20260831144525 78 67 0.9 2.6 0.00 0.02 0.00 63 1036.5
20260831143527 76 67 0.0 0.9 0.00 0.02 0.00 67 1036.5
20260831142625 75 67 0.9 4.3 0.00 0.02 0.00 69 1036.4
20260831141626 75 180 0.9 2.6 0.00 0.02 0.00 72 1036.3
20260831140628 74 67 0.9 1.7 0.00 0.02 0.00 73 1036.4
20260831135626 73 99 0.0 0.9 0.00 0.02 0.00 75 1036.3
20260831134626 73 72 1.7 3.5 0.00 0.02 0.00 77 1036.2
20260831133628 72 67 0.9 2.6 0.00 0.02 0.00 78 1036.2
20260831132725 71 337 0.0 2.6 0.00 0.02 0.00 80 1036.0
20260831131726 71 7 0.9 1.7 0.00 0.02 0.00 79 1036.1
20260831125726 71 337 0.0 0.0 0.00 0.02 0.00 81 1036.0
20260831123826 70 337 0.0 0.0 0.00 0.02 0.00 83 1036.0
20260831122826 70 71 0.0 2.6 0.00 0.02 0.00 83 1036.1
20260831121828 69 330 1.7 3.5 0.00 0.02 0.00 84 1036.0
20260831120826 69 315 0.9 1.7 0.00 0.02 0.00 85 1036.2
20260831115827 69 315 0.0 1.7 0.00 0.02 0.00 85 1036.1
20260831114826 68 337 1.7 2.6 0.00 0.02 0.00 86 1036.1
20260831113925 68 337 0.9 1.7 0.00 0.02 0.00 86 1036.1
20260831112927 68 337 0.9 1.7 0.00 0.02 0.00 87 1035.8
20260831111926 67 315 0.0 0.0 0.00 0.02 0.00 87 1035.8
20260831111025 67 337 0.0 0.0 0.00 0.02 0.00 87 1035.7
20260831110026 67 337 0.0 0.0 0.00 0.02 0.00 87 1035.6
20260831105026 67 337 0.0 0.0 0.00 0.02 0.00 87 1035.5
20260831104026 67 337 0.0 0.0 0.00 0.02 0.00 87 1035.4
20260831103027 67 180 0.0 0.0 0.00 0.02 0.00 88 1035.4
20260831102028 68 337 0.0 0.9 0.00 0.02 0.00 87 1035.3
20260831101026 68 337 0.0 0.0 0.00 0.02 0.00 87 1035.3
20260831095026 68 337 0.0 0.0 0.00 0.02 0.00 87 1035.0
20260831094028 68 67 0.0 0.9 0.00 0.02 0.00 86 1035.1
20260831093126 68 354 0.0 0.9 0.00 0.02 0.00 86 1034.9